Location: La Chapelle
(48.3135°N, 1.3085°W)
Time: 08:14:12
(UTC+00:00)

SJ-6B - Pass Details

Date: 03 March 2021
Orbit: 508 x 581 km, 97.6° (Epoch: 11 April)

Event Time Altitude Azimuth Distance (km) Brightness Sun altitude
Exits shadow 19:22:55 23° 133° (SE) 1,239 4.1 -15.8°
Maximum altitude 19:25:08 47° 71° (ENE) 772 3.1 -16.1°
Drops below altitude 10° 19:29:02 10° 358° (N) 1,875 5.7 -16.8°
Sets 19:31:13 0° 353° (N) 2,765 6.6 -17.1°
